When you browse on this site, cookies collect data to enhance your experience and personalize the content and advertising you see.
Visit our Privacy Policy to learn more. By continuing to use the site, you agree to this use of cookies and data.
  • In United Kingdom
  • List of Countries
  • For 7 days
  • Water Temperature
  • Weather Map
  • Weather Widgets
  • user-avatar
    Login

    Hourly Weather Kanelones

    Today, 16 September, Monday

    Time Temperature Precipitation Wind Pressure Humidity
    00:00 +14°C° 0 mm 4 mps 757 mmHg 78%
    01:00 +14°C° 0 mm 5 mps 757 mmHg 78%
    02:00 +14°C° 0 mm 6 mps 758 mmHg 77%
    03:00 +13°C° 0 mm 5 mps 758 mmHg 77%
    04:00 +12°C° 0 mm 4 mps 758 mmHg 77%
    05:00 +11°C° 0 mm 3 mps 758 mmHg 77%
    06:00 +12°C° 0 mm 4 mps 759 mmHg 75%
    07:00 +13°C° 0 mm 4 mps 760 mmHg 73%
    08:00 +14°C° 0 mm 4 mps 761 mmHg 70%
    09:00 +15°C° 0 mm 5 mps 761 mmHg 66%
    10:00 +16°C° 0 mm 5 mps 762 mmHg 62%
    11:00 +16°C° 0 mm 5 mps 762 mmHg 58%
    12:00 +16°C° 0 mm 5 mps 762 mmHg 56%
    13:00 +16°C° 0 mm 5 mps 762 mmHg 54%
    14:00 +17°C° 0 mm 4 mps 762 mmHg 53%
    15:00 +16°C° 0 mm 3 mps 762 mmHg 56%
    16:00 +14°C° 0 mm 3 mps 762 mmHg 58%
    17:00 +14°C° 0 mm 2 mps 762 mmHg 61%
    18:00 +12°C° 0 mm 2 mps 762 mmHg 61%
    19:00 +10°C° 0 mm 2 mps 762 mmHg 61%
    20:00 +10°C° 0 mm 1 mps 763 mmHg 61%
    21:00 +8°C° 0 mm 2 mps 763 mmHg 61%
    22:00 +8°C° 0 mm 2 mps 762 mmHg 61%
    23:00 +8°C° 0 mm 2 mps 762 mmHg 62%

    Tomorrow, 17 September, Tuesday

    Time Temperature Precipitation Wind Pressure Humidity
    00:00 +7°C° 0 mm 2 mps 762 mmHg 66%
    01:00 +7°C° 0 mm 2 mps 761 mmHg 71%
    02:00 +7°C° 0 mm 2 mps 761 mmHg 75%
    03:00 +7°C° 0 mm 3 mps 761 mmHg 75%
    04:00 +7°C° 0 mm 3 mps 760 mmHg 76%
    05:00 +7°C° 0 mm 3 mps 760 mmHg 76%
    06:00 +8°C° 0 mm 3 mps 759 mmHg 73%
    07:00 +9°C° 0 mm 3 mps 759 mmHg 69%
    08:00 +11°C° 0 mm 4 mps 759 mmHg 66%
    09:00 +12°C° 0 mm 4 mps 758 mmHg 62%
    10:00 +14°C° 0 mm 5 mps 758 mmHg 58%
    11:00 +16°C° 0 mm 5 mps 758 mmHg 54%
    12:00 +16°C° 0 mm 5 mps 757 mmHg 54%
    13:00 +17°C° 0 mm 5 mps 756 mmHg 54%
    14:00 +17°C° 0 mm 5 mps 755 mmHg 54%
    15:00 +16°C° 0 mm 5 mps 755 mmHg 60%
    16:00 +15°C° 0 mm 4 mps 755 mmHg 65%
    17:00 +14°C° 0 mm 4 mps 754 mmHg 71%
    18:00 +13°C° 0 mm 4 mps 755 mmHg 73%
    19:00 +12°C° 0 mm 4 mps 755 mmHg 75%
    20:00 +11°C° 0 mm 4 mps 755 mmHg 77%
    21:00 +11°C° 0 mm 4 mps 755 mmHg 77%
    22:00 +10°C° 0 mm 4 mps 755 mmHg 76%
    23:00 +10°C° 0 mm 4 mps 755 mmHg 76%

    Day after tomorrow, 18 September, Wednesday

    Time Temperature Precipitation Wind Pressure Humidity
    00:00 +10°C° 0 mm 4 mps 755 mmHg 76%
    01:00 +10°C° 0 mm 3 mps 755 mmHg 77%
    02:00 +9°C° 0 mm 3 mps 755 mmHg 78%
    03:00 +9°C° 0 mm 3 mps 755 mmHg 81%
    04:00 +9°C° 0 mm 2 mps 755 mmHg 84%
    05:00 +9°C° 0 mm 2 mps 756 mmHg 87%
    06:00 +10°C° 0 mm 2 mps 756 mmHg 82%
    07:00 +13°C° 0 mm 2 mps 756 mmHg 76%
    08:00 +14°C° 0 mm 2 mps 757 mmHg 71%
    09:00 +15°C° 0 mm 2 mps 756 mmHg 66%
    10:00 +16°C° 0 mm 2 mps 756 mmHg 60%
    11:00 +17°C° 0 mm 2 mps 756 mmHg 55%
    12:00 +17°C° 0 mm 2 mps 756 mmHg 54%
    13:00 +18°C° 0 mm 2 mps 755 mmHg 53%
    14:00 +19°C° 0 mm 1 mps 754 mmHg 52%
    15:00 +18°C° 0 mm 1 mps 754 mmHg 58%
    16:00 +18°C° 0 mm 1 mps 753 mmHg 63%
    17:00 +16°C° 0 mm 1 mps 753 mmHg 69%
    18:00 +15°C° 0 mm 2 mps 753 mmHg 74%
    19:00 +14°C° 0 mm 2 mps 753 mmHg 79%
    20:00 +12°C° 0 mm 3 mps 753 mmHg 84%
    21:00 +12°C° 0 mm 3 mps 753 mmHg 85%
    22:00 +11°C° 0 mm 4 mps 752 mmHg 87%
    23:00 +11°C° 0 mm 4 mps 752 mmHg 88%

    19 September, Thursday

    Time Temperature Precipitation Wind Pressure Humidity
    00:00 +11°C° 0 mm 4 mps 752 mmHg 89%
    01:00 +11°C° 0 mm 4 mps 751 mmHg 89%
    02:00 +11°C° 0 mm 4 mps 751 mmHg 90%
    03:00 +10°C° 0 mm 5 mps 751 mmHg 89%
    04:00 +9°C° 0 mm 5 mps 751 mmHg 88%
    05:00 +9°C° 0 mm 5 mps 751 mmHg 87%
    06:00 +12°C° 0 mm 5 mps 752 mmHg 84%
    07:00 +13°C° 0 mm 5 mps 753 mmHg 80%
    08:00 +14°C° 0 mm 5 mps 753 mmHg 77%
    09:00 +15°C° 0 mm 5 mps 754 mmHg 74%
    10:00 +16°C° 0 mm 5 mps 754 mmHg 71%
    11:00 +17°C° 0 mm 5 mps 754 mmHg 68%
    12:00 +16°C° 0 mm 6 mps 754 mmHg 67%
    13:00 +15°C° 0 mm 6 mps 754 mmHg 65%
    14:00 +14°C° 0 mm 6 mps 754 mmHg 64%
    15:00 +13°C° 0 mm 5 mps 755 mmHg 64%
    16:00 +12°C° 0 mm 4 mps 755 mmHg 63%
    17:00 +11°C° 0 mm 4 mps 756 mmHg 62%
    18:00 +11°C° 0 mm 3 mps 757 mmHg 58%
    19:00 +10°C° 0 mm 3 mps 758 mmHg 54%
    20:00 +9°C° 0 mm 2 mps 758 mmHg 50%
    21:00 +9°C° 0 mm 2 mps 759 mmHg 51%
    22:00 +8°C° 0 mm 2 mps 759 mmHg 52%
    23:00 +8°C° 0 mm 2 mps 760 mmHg 54%

    20 September, Friday

    Time Temperature Precipitation Wind Pressure Humidity
    00:00 +8°C° 0 mm 2 mps 760 mmHg 57%
    01:00 +7°C° 0 mm 2 mps 760 mmHg 60%
    02:00 +8°C° 0 mm 1 mps 760 mmHg 64%
    03:00 +7°C° 0 mm 1 mps 761 mmHg 67%
    04:00 +7°C° 0 mm 1 mps 761 mmHg 70%
    05:00 +6°C° 0 mm 1 mps 761 mmHg 73%
    06:00 +8°C° 0 mm 1 mps 761 mmHg 71%
    07:00 +9°C° 0 mm 1 mps 762 mmHg 68%
    08:00 +10°C° 0 mm 2 mps 762 mmHg 66%
    09:00 +12°C° 0 mm 2 mps 762 mmHg 58%
    10:00 +14°C° 0 mm 2 mps 763 mmHg 51%
    11:00 +15°C° 0 mm 2 mps 763 mmHg 43%
    12:00 +14°C° 0 mm 3 mps 763 mmHg 42%
    13:00 +16°C° 0 mm 3 mps 762 mmHg 42%
    14:00 +16°C° 0 mm 3 mps 762 mmHg 41%
    15:00 +15°C° 0 mm 2 mps 762 mmHg 46%
    16:00 +14°C° 0 mm 2 mps 762 mmHg 51%
    17:00 +13°C° 0 mm 1 mps 762 mmHg 56%
    18:00 +12°C° 0 mm 2 mps 762 mmHg 55%
    19:00 +10°C° 0 mm 2 mps 762 mmHg 55%
    20:00 +9°C° 0 mm 2 mps 762 mmHg 54%
    21:00 +8°C° 0 mm 2 mps 762 mmHg 59%
    22:00 +8°C° 0 mm 3 mps 762 mmHg 64%
    23:00 +7°C° 0 mm 3 mps 762 mmHg 69%

    21 September, Saturday

    Time Temperature Precipitation Wind Pressure Humidity
    00:00 +6°C° 0 mm 4 mps 762 mmHg 70%
    01:00 +6°C° 0 mm 4 mps 762 mmHg 71%
    02:00 +5°C° 0 mm 4 mps 761 mmHg 73%
    03:00 +5°C° 0 mm 4 mps 761 mmHg 74%
    04:00 +5°C° 0 mm 4 mps 761 mmHg 75%
    05:00 +5°C° 0 mm 4 mps 761 mmHg 75%
    06:00 +6°C° 0 mm 4 mps 761 mmHg 73%
    07:00 +8°C° 0 mm 5 mps 761 mmHg 71%
    08:00 +10°C° 0 mm 5 mps 762 mmHg 69%
    09:00 +11°C° 0 mm 6 mps 761 mmHg 66%
    10:00 +14°C° 0 mm 6 mps 761 mmHg 63%
    11:00 +16°C° 0 mm 6 mps 761 mmHg 60%
    12:00 +17°C° 0 mm 6 mps 760 mmHg 59%
    13:00 +17°C° 0 mm 6 mps 760 mmHg 59%
    14:00 +19°C° 0 mm 6 mps 759 mmHg 58%
    15:00 +17°C° 0 mm 5 mps 759 mmHg 64%
    16:00 +16°C° 0 mm 5 mps 759 mmHg 69%
    17:00 +17°C° 0 mm 4 mps 758 mmHg 75%
    18:00 +14°C° 0 mm 4 mps 759 mmHg 78%
    19:00 +13°C° 0 mm 4 mps 759 mmHg 82%
    20:00 +11°C° 0 mm 4 mps 759 mmHg 85%
    21:00 +11°C° 0 mm 4 mps 760 mmHg 85%
    22:00 +11°C° 0 mm 4 mps 760 mmHg 86%
    23:00 +10°C° 0 mm 3 mps 760 mmHg 86%
    Show more